Location: Killam
(52.7910°N, 111.8608°W)
Time: 09:57:53
(UTC+00:00)

STRAND 1 - Visible Passes

Search period start: 01 December 2023 00:00
Search period end: 11 December 2023 00:00
Orbit: 765 x 779 km, 98.4° (Epoch: 30 November)

Date Brightness Start Highest point End Pass type
(mag) Time Alt. Az. Time Alt. Az. Time Alt. Az.
01 Dec ? 01:59:48 44° SE 01:59:48 44° SE 02:03:38 10° S visible
01 Dec ? 03:40:09 19° WSW 03:40:09 19° WSW 03:41:55 10° WSW visible
01 Dec ? 11:37:23 10° ESE 11:41:31 25° ENE 11:45:39 10° N visible
01 Dec ? 13:15:14 10° S 13:20:19 63° WSW 13:25:24 10° NNW visible
02 Dec ? 01:24:44 27° ESE 01:24:44 27° ESE 01:28:09 10° SSE visible
02 Dec ? 03:05:06 33° WSW 03:05:06 33° WSW 03:08:03 10° SW visible
02 Dec ? 11:04:20 10° E 11:07:17 16° NE 11:10:13 10° NNE visible
02 Dec ? 12:40:31 10° SSE 12:45:37 72° ENE 12:50:43 10° NNW visible
02 Dec ? 14:21:30 10° SW 14:25:17 21° W 14:29:05 10° NW visible
03 Dec ? 00:49:40 15° E 00:49:40 15° E 00:51:44 10° SE visible
03 Dec ? 02:30:01 48° SSW 02:30:01 48° SSW 02:33:38 10° SSW visible
03 Dec ? 04:10:23 11° W 04:10:23 11° W 04:10:32 10° W visible
03 Dec ? 12:06:20 10° SE 12:11:04 40° ENE 12:15:33 11° N visible
03 Dec ? 13:45:33 10° SSW 13:50:16 37° W 13:55:01 10° NNW visible
04 Dec ? 01:54:57 41° SE 01:54:57 41° SE 01:58:42 10° S visible
04 Dec ? 03:35:18 20° WSW 03:35:18 20° WSW 03:37:11 10° WSW visible
04 Dec ? 11:32:41 10° ESE 11:36:42 24° ENE 11:40:18 12° N visible
04 Dec ? 13:10:20 10° S 13:15:25 69° WSW 13:20:32 10° NNW visible
05 Dec ? 01:19:51 25° ESE 01:19:51 25° ESE 01:23:07 10° SSE visible
05 Dec ? 03:00:12 34° SW 03:00:12 34° SW 03:03:14 10° SW visible
05 Dec ? 10:59:46 10° E 11:02:28 15° NE 11:05:03 10° NNE visible
05 Dec ? 12:35:41 10° SSE 12:40:44 66° ENE 12:45:24 12° N visible
05 Dec ? 14:16:24 10° SW 14:20:21 22° W 14:24:19 10° NW visible
06 Dec ? 00:44:46 14° E 00:44:46 14° E 00:46:29 10° ESE visible
06 Dec ? 02:25:07 48° S 02:25:07 48° S 02:28:45 10° SSW visible
06 Dec ? 04:05:28 12° W 04:05:28 12° W 04:05:53 10° W visible
06 Dec ? 12:01:33 10° SE 12:06:13 37° ENE 12:10:09 14° N visible
06 Dec ? 13:40:33 10° SSW 13:45:20 40° W 13:50:10 10° NNW visible
07 Dec ? 01:50:01 39° SE 01:50:01 39° SE 01:53:43 10° S visible
07 Dec ? 03:30:21 22° WSW 03:30:21 22° WSW 03:32:26 10° SW visible
07 Dec ? 11:27:59 10° ESE 11:31:51 22° NE 11:34:54 13° NNE visible
07 Dec ? 13:05:25 10° S 13:10:31 75° WSW 13:15:15 12° NNW visible
08 Dec ? 01:14:54 23° ESE 01:14:54 23° ESE 01:18:02 10° SSE visible
08 Dec ? 02:55:15 37° SW 02:55:15 37° SW 02:58:24 10° SSW visible
08 Dec ? 10:55:12 10° ENE 10:57:38 14° NE 10:59:40 11° NNE visible
08 Dec ? 12:30:50 10° SSE 12:35:51 61° ENE 12:40:01 15° N visible
08 Dec ? 14:11:18 10° SW 14:15:24 24° W 14:19:32 10° NW visible
09 Dec ? 00:39:47 13° E 00:39:47 13° E 00:41:09 10° ESE visible
09 Dec ? 02:20:08 49° S 02:20:08 49° S 02:23:50 10° S visible
09 Dec ? 04:00:28 13° W 04:00:28 13° W 04:01:11 10° WSW visible
09 Dec ? 11:56:46 10° SE 12:01:21 34° ENE 12:04:47 16° N visible
09 Dec ? 13:35:33 10° S 13:40:25 44° W 13:45:07 11° NNW visible
10 Dec ? 01:45:00 37° SE 01:45:00 37° SE 01:48:43 10° SSE visible
10 Dec ? 03:25:21 24° WSW 03:25:21 24° WSW 03:27:38 10° SW visible
10 Dec ? 11:23:17 10° ESE 11:26:59 21° NE 11:29:33 15° NNE visible
10 Dec ? 13:00:29 10° SSE 13:05:37 81° WSW 13:09:54 15° NNW visible
10 Dec ? 14:42:55 10° WSW 14:45:34 14° W 14:48:16 10° NW visible
